• In Latvia
  • List of Countries
  • For 7 days
  • Water Temperature
  • Satellite Maps
  • Weather Map
  • Weather Widgets
  • user-avatar
    Login

    Hourly Weather Thimphu

    Today, 20 September, Wednesday

    Time Temperature Precipitation Wind Pressure Humidity
    00:00 +12°C° 0 mm 1 mps 526 mmHg 89%
    01:00 +12°C° 0.2 mm 1 mps 526 mmHg 88%
    02:00 +12°C° 0.2 mm 1 mps 526 mmHg 87%
    03:00 +12°C° 0.2 mm 1 mps 525 mmHg 86%
    04:00 +12°C° 0.1 mm 1 mps 525 mmHg 86%
    05:00 +11°C° 0.1 mm 1 mps 525 mmHg 85%
    06:00 +11°C° 0 mm 1 mps 526 mmHg 84%
    07:00 +12°C° 0.3 mm 1 mps 526 mmHg 80%
    08:00 +13°C° 0.3 mm 1 mps 527 mmHg 77%
    09:00 +15°C° 0.3 mm 1 mps 528 mmHg 73%
    10:00 +15°C° 0.4 mm 1 mps 528 mmHg 72%
    11:00 +15°C° 0.4 mm 2 mps 528 mmHg 72%
    12:00 +15°C° 0 mm 1 mps 528 mmHg 76%
    13:00 +15°C° 0.5 mm 1 mps 527 mmHg 76%
    14:00 +15°C° 0.5 mm 1 mps 527 mmHg 75%
    15:00 +15°C° 0.5 mm 1 mps 526 mmHg 74%
    16:00 +14°C° 0.2 mm 1 mps 526 mmHg 79%
    17:00 +13°C° 0.2 mm 1 mps 526 mmHg 83%
    18:00 +12°C° 0.2 mm 1 mps 525 mmHg 87%
    19:00 +12°C° 0.2 mm 1 mps 526 mmHg 87%
    20:00 +12°C° 0.2 mm 1 mps 526 mmHg 86%
    21:00 +12°C° 0.2 mm 1 mps 526 mmHg 86%
    22:00 +12°C° 0.2 mm 1 mps 526 mmHg 86%
    23:00 +12°C° 0.2 mm 1 mps 526 mmHg 86%

    Tomorrow, 21 September, Thursday

    Time Temperature Precipitation Wind Pressure Humidity
    00:00 +12°C° 0.2 mm 1 mps 526 mmHg 86%
    01:00 +11°C° 0.3 mm 1 mps 526 mmHg 85%
    02:00 +11°C° 0.3 mm 1 mps 526 mmHg 85%
    03:00 +10°C° 0.3 mm 0 mps 525 mmHg 85%
    04:00 +11°C° 0.5 mm 1 mps 525 mmHg 85%
    05:00 +11°C° 0.5 mm 1 mps 525 mmHg 85%
    06:00 +11°C° 0.5 mm 1 mps 526 mmHg 85%
    07:00 +12°C° 0.7 mm 1 mps 526 mmHg 84%
    08:00 +12°C° 0.7 mm 1 mps 527 mmHg 83%
    09:00 +13°C° 0.7 mm 1 mps 527 mmHg 81%
    10:00 +13°C° 0.5 mm 1 mps 527 mmHg 80%
    11:00 +14°C° 0.5 mm 1 mps 527 mmHg 80%
    12:00 +14°C° 0.5 mm 1 mps 527 mmHg 79%
    13:00 +14°C° 0.4 mm 1 mps 527 mmHg 77%
    14:00 +15°C° 0.4 mm 1 mps 527 mmHg 76%
    15:00 +15°C° 0.4 mm 1 mps 527 mmHg 75%
    16:00 +14°C° 0.1 mm 1 mps 526 mmHg 80%
    17:00 +13°C° 0.1 mm 1 mps 526 mmHg 85%
    18:00 +12°C° 0.1 mm 1 mps 525 mmHg 89%
    19:00 +12°C° 0.1 mm 1 mps 525 mmHg 89%
    20:00 +12°C° 0.1 mm 1 mps 526 mmHg 89%
    21:00 +12°C° 0.1 mm 1 mps 526 mmHg 89%
    22:00 +12°C° 0 mm 1 mps 526 mmHg 89%
    23:00 +11°C° 0 mm 1 mps 526 mmHg 89%

    Day after tomorrow, 22 September, Friday

    Time Temperature Precipitation Wind Pressure Humidity
    00:00 +11°C° 0 mm 1 mps 526 mmHg 89%
    01:00 +11°C° 0 mm 1 mps 525 mmHg 89%
    02:00 +11°C° 0 mm 1 mps 525 mmHg 88%
    03:00 +11°C° 0 mm 1 mps 525 mmHg 88%
    04:00 +11°C° 0 mm 1 mps 525 mmHg 88%
    05:00 +11°C° 0 mm 1 mps 525 mmHg 87%
    06:00 +11°C° 0 mm 1 mps 525 mmHg 87%
    07:00 +12°C° 0 mm 1 mps 527 mmHg 82%
    08:00 +14°C° 0 mm 1 mps 528 mmHg 76%
    09:00 +16°C° 0 mm 1 mps 529 mmHg 71%
    10:00 +16°C° 0 mm 2 mps 529 mmHg 69%
    11:00 +17°C° 0 mm 2 mps 529 mmHg 67%
    12:00 +18°C° 0 mm 2 mps 529 mmHg 65%
    13:00 +17°C° 0.2 mm 2 mps 528 mmHg 69%
    14:00 +17°C° 0.2 mm 2 mps 528 mmHg 74%
    15:00 +16°C° 0.2 mm 2 mps 527 mmHg 78%
    16:00 +15°C° 0.1 mm 2 mps 526 mmHg 83%
    17:00 +14°C° 0.1 mm 1 mps 526 mmHg 88%
    18:00 +13°C° 0.1 mm 1 mps 526 mmHg 94%
    19:00 +13°C° 0 mm 1 mps 526 mmHg 94%
    20:00 +12°C° 0 mm 1 mps 526 mmHg 94%
    21:00 +11°C° 0 mm 0 mps 526 mmHg 94%
    22:00 +11°C° 0 mm 0 mps 526 mmHg 93%
    23:00 +10°C° 0 mm 0 mps 526 mmHg 92%

    23 September, Saturday

    Time Temperature Precipitation Wind Pressure Humidity
    00:00 +11°C° 0 mm 1 mps 526 mmHg 92%
    01:00 +11°C° 0 mm 1 mps 526 mmHg 91%
    02:00 +11°C° 0 mm 1 mps 525 mmHg 90%
    03:00 +11°C° 0 mm 1 mps 525 mmHg 89%
    04:00 +11°C° 0 mm 1 mps 525 mmHg 88%
    05:00 +10°C° 0 mm 1 mps 525 mmHg 88%
    06:00 +10°C° 0 mm 1 mps 525 mmHg 87%
    07:00 +12°C° 0 mm 1 mps 527 mmHg 80%
    08:00 +14°C° 0 mm 1 mps 529 mmHg 74%
    09:00 +18°C° 0 mm 1 mps 530 mmHg 67%
    10:00 +17°C° 0 mm 2 mps 530 mmHg 67%
    11:00 +17°C° 0 mm 2 mps 530 mmHg 68%
    12:00 +18°C° 0 mm 2 mps 530 mmHg 68%
    13:00 +17°C° 0.1 mm 2 mps 529 mmHg 70%
    14:00 +17°C° 0.1 mm 2 mps 528 mmHg 72%
    15:00 +16°C° 0.1 mm 2 mps 527 mmHg 74%
    16:00 +15°C° 0.1 mm 2 mps 527 mmHg 81%
    17:00 +14°C° 0.1 mm 1 mps 526 mmHg 87%
    18:00 +13°C° 0.1 mm 1 mps 525 mmHg 93%
    19:00 +13°C° 0.1 mm 1 mps 526 mmHg 93%
    20:00 +13°C° 0.1 mm 1 mps 526 mmHg 94%
    21:00 +11°C° 0.1 mm 0 mps 527 mmHg 94%
    22:00 +11°C° 0 mm 0 mps 527 mmHg 94%
    23:00 +11°C° 0 mm 0 mps 526 mmHg 93%

    24 September, Sunday

    Time Temperature Precipitation Wind Pressure Humidity
    00:00 +11°C° 0 mm 0 mps 526 mmHg 93%
    01:00 +10°C° 0 mm 0 mps 526 mmHg 92%
    02:00 +10°C° 0 mm 0 mps 526 mmHg 91%
    03:00 +10°C° 0 mm 0 mps 525 mmHg 90%
    04:00 +10°C° 0 mm 0 mps 525 mmHg 90%
    05:00 +10°C° 0 mm 0 mps 525 mmHg 90%
    06:00 +9°C° 0 mm 0 mps 525 mmHg 90%
    07:00 +12°C° 0 mm 1 mps 527 mmHg 83%
    08:00 +14°C° 0 mm 1 mps 528 mmHg 76%
    09:00 +16°C° 0 mm 1 mps 529 mmHg 70%
    10:00 +17°C° 0.1 mm 2 mps 529 mmHg 68%
    11:00 +17°C° 0.1 mm 2 mps 529 mmHg 66%
    12:00 +18°C° 0.1 mm 2 mps 529 mmHg 65%
    13:00 +17°C° 0.1 mm 2 mps 528 mmHg 68%
    14:00 +17°C° 0.1 mm 2 mps 527 mmHg 71%
    15:00 +16°C° 0.1 mm 2 mps 526 mmHg 74%
    16:00 +15°C° 0.1 mm 2 mps 526 mmHg 80%
    17:00 +14°C° 0.1 mm 1 mps 526 mmHg 86%
    18:00 +13°C° 0.1 mm 1 mps 525 mmHg 92%
    19:00 +13°C° 0 mm 1 mps 525 mmHg 92%
    20:00 +12°C° 0 mm 1 mps 526 mmHg 93%
    21:00 +11°C° 0 mm 0 mps 526 mmHg 93%
    22:00 +11°C° 0 mm 0 mps 526 mmHg 92%
    23:00 +11°C° 0 mm 0 mps 525 mmHg 91%

    25 September, Monday

    Time Temperature Precipitation Wind Pressure Humidity
    00:00 +10°C° 0 mm 0 mps 525 mmHg 91%
    01:00 +10°C° 0 mm 0 mps 525 mmHg 90%
    02:00 +11°C° 0 mm 1 mps 525 mmHg 89%
    03:00 +11°C° 0 mm 1 mps 524 mmHg 88%
    04:00 +11°C° 0 mm 1 mps 524 mmHg 87%
    05:00 +10°C° 0 mm 1 mps 525 mmHg 87%
    06:00 +10°C° 0 mm 1 mps 525 mmHg 86%
    07:00 +12°C° 0 mm 1 mps 526 mmHg 78%
    08:00 +14°C° 0 mm 1 mps 528 mmHg 71%
    09:00 +16°C° 0 mm 1 mps 529 mmHg 63%
    10:00 +17°C° 0 mm 2 mps 529 mmHg 63%
    11:00 +18°C° 0 mm 2 mps 529 mmHg 62%
    12:00 +18°C° 0 mm 2 mps 529 mmHg 62%
    13:00 +18°C° 0.1 mm 2 mps 528 mmHg 65%
    14:00 +17°C° 0.1 mm 2 mps 527 mmHg 68%
    15:00 +17°C° 0.1 mm 2 mps 526 mmHg 71%
    16:00 +15°C° 0.1 mm 2 mps 526 mmHg 78%
    17:00 +14°C° 0.1 mm 1 mps 525 mmHg 85%
    18:00 +13°C° 0.1 mm 1 mps 525 mmHg 92%
    19:00 +13°C° 0 mm 1 mps 525 mmHg 92%
    20:00 +12°C° 0 mm 1 mps 525 mmHg 93%
    21:00 +12°C° 0 mm 1 mps 526 mmHg 93%
    22:00 +12°C° 0 mm 1 mps 525 mmHg 91%
    23:00 +11°C° 0 mm 1 mps 525 mmHg 90%
    Show more